Bloomington, IN

6:39 PM EDT on October 22, 2019 (GMT -0400)
Monroe County

Weather History for KBMG - August, 2019

Change the Weather History Date:

Tuesday, August 27, 2019

  Actual Average Record
Temperature  
Mean Temperature 73 °F 72 °F  
Max Temperature 80 °F 84 °F 91 °F (2003)
Min Temperature 66 °F 60 °F 46 °F (2010)
Degree Days  
Heating Degree Days 0 0  
Month to date heating degree days 0 0  
Since 1 June heating degree days 14 17  
Since 1 July heating degree days 0 2  
Cooling Degree Days 8 7  
Month to date cooling degree days 243 228  
Year to date cooling degree days 950 794  
Since 1 June cooling degree days 819 712  
Growing Degree Days 23 (Base 50)    
Moisture  
Dew Point 68 °F    
Average Humidity 87    
Maximum Humidity 93    
Minimum Humidity 66    
Precipitation  
Precipitation 0.56 in 0.13 in 1.26 in (2006)
Month to date precipitation 4.17 3.00  
Year to date precipitation 36.21 32.67  
Sea Level Pressure  
Sea Level Pressure 29.87 in    
Wind  
Wind Speed 6 mph ()    
Max Wind Speed 15 mph    
Max Gust Speed 20 mph    
Visibility 8.2 miles    
Events Fog , Rain , Thunderstorm    
T = Trace of Precipitation, MM = Missing Value Source: Averaged Metar Reports

Daily Weather History Graph

Daily Weather History Graph

Search for Another Location

Airport or City:

Astronomy

Aug. 27, 2019 Rise Set
Actual Time 7:10 AM EDT 8:24 PM EDT
Civil Twilight 6:42 AM EDT 8:52 PM EDT
Nautical Twilight 6:09 AM EDT 9:25 PM EDT
Astronomical Twilight 5:34 AM EDT 10:00 PM EDT
Moon 3:36 AM EDT (8/27) 6:43 PM EDT (8/27)
Length of Visible Light 14h 09m
Length of Day
13h 14m
Waning Crescent, 11% of the Moon is Illuminated
Aug 27
Waning Crescent
Aug 30
New
Sep 5
First Quarter
Sep 14
Full
Sep 21
Last Quarter

Hourly Weather History & Observations

Time (EDT) Temp. Dew Point Humidity Pressure Visibility Wind Dir Wind Speed Gust Speed Precip Events Conditions
12:53 AM 73.0 °F 69.1 °F 87% 29.82 in 10.0 mi South 13.8 mph - N/A   Overcast
1:53 AM 72.0 °F 69.1 °F 91% 29.82 in 10.0 mi South 12.7 mph - N/A   Overcast
2:53 AM 72.0 °F 69.1 °F 91% 29.82 in 10.0 mi South 9.2 mph 18.4 mph N/A   Overcast
3:53 AM 72.0 °F 68.0 °F 87% 29.82 in 10.0 mi South 8.1 mph - N/A   Overcast
4:53 AM 72.0 °F 69.1 °F 91% 29.82 in 6.0 mi South 8.1 mph - 0.02 in Rain Rain
5:53 AM 71.1 °F 68.0 °F 90% 29.82 in 10.0 mi SSW 9.2 mph - 0.02 in Rain Light Rain
6:43 AM 71.1 °F 68.0 °F 90% 29.83 in 10.0 mi South 8.1 mph - 0.00 in   Overcast
6:53 AM 71.1 °F 68.0 °F 90% 29.82 in 10.0 mi SSW 9.2 mph - 0.00 in   Overcast
7:21 AM 71.1 °F 68.0 °F 90% 29.85 in 10.0 mi SW 6.9 mph - 0.00 in   Overcast
7:49 AM 71.6 °F 68.0 °F 88% 29.85 in 3.0 mi Calm Calm - 0.05 in Rain Light Rain
7:53 AM 70.0 °F 68.0 °F 93% 29.83 in 1.8 mi NNE 3.5 mph - 0.09 in Rain Heavy Rain
7:59 AM 70.0 °F 68.0 °F 93% 29.84 in 2.0 mi Calm Calm - 0.00 in Rain , Thunderstorm Light Rain
8:07 AM 71.1 °F 68.0 °F 90% 29.86 in 10.0 mi NW 3.5 mph - 0.00 in Thunderstorm Overcast
8:26 AM 70.0 °F 68.0 °F 93% 29.86 in 1.5 mi South 5.8 mph - 0.08 in Rain , Thunderstorm Heavy Thunderstorms and Rain
8:30 AM 70.0 °F 68.0 °F 93% 29.86 in 0.5 mi SW 4.6 mph - 0.20 in Fog , Rain , Thunderstorm Heavy Thunderstorms and Rain
8:34 AM 70.0 °F 68.0 °F 93% 29.86 in 0.2 mi West 5.8 mph - 0.34 in Fog , Rain , Thunderstorm Heavy Thunderstorms and Rain
8:41 AM 70.0 °F 68.0 °F 93% 29.86 in 0.5 mi WSW 4.6 mph - 0.39 in Fog , Rain , Thunderstorm Heavy Thunderstorms and Rain
8:53 AM 71.1 °F 68.0 °F 90% 29.84 in 4.0 mi West 3.5 mph - 0.41 in Rain Light Rain
9:25 AM 72.0 °F 69.1 °F 91% 29.86 in 10.0 mi WSW 4.6 mph - 0.01 in   Overcast
9:53 AM 72.0 °F 69.1 °F 91% 29.85 in 10.0 mi WSW 4.6 mph - 0.01 in   Overcast
10:53 AM 72.0 °F 69.1 °F 91% 29.86 in 10.0 mi Calm Calm - 0.00 in   Overcast
11:36 AM 72.0 °F 69.1 °F 91% 29.89 in 8.0 mi West 4.6 mph - 0.01 in   Overcast
11:45 AM 72.0 °F 69.1 °F 91% 29.89 in 10.0 mi West 5.8 mph - 0.01 in   Overcast
11:53 AM 72.0 °F 69.1 °F 91% 29.87 in 10.0 mi Variable 4.6 mph - 0.01 in   Overcast
12:21 PM 72.0 °F 69.1 °F 91% 29.89 in 8.0 mi NW 5.8 mph - N/A   Overcast
12:42 PM 72.0 °F 69.1 °F 91% 29.88 in 10.0 mi Calm Calm - N/A   Overcast
12:53 PM 73.0 °F 69.1 °F 87% 29.86 in 10.0 mi West 3.5 mph - N/A   Overcast
1:08 PM 73.9 °F 69.1 °F 85% 29.88 in 10.0 mi Calm Calm - N/A   Mostly Cloudy
1:41 PM 75.0 °F 69.1 °F 82% 29.89 in 10.0 mi WNW 4.6 mph - N/A   Overcast
1:53 PM 75.9 °F 69.1 °F 79% 29.86 in 10.0 mi WNW 4.6 mph - N/A   Overcast
2:20 PM 75.9 °F 70.0 °F 82% 29.89 in 10.0 mi West 5.8 mph - N/A   Overcast
2:53 PM 75.9 °F 68.0 °F 76% 29.87 in 10.0 mi NW 3.5 mph - N/A   Mostly Cloudy
3:53 PM 78.1 °F 66.9 °F 68% 29.87 in 10.0 mi WNW 5.8 mph - N/A   Partly Cloudy
4:53 PM 78.1 °F 66.9 °F 68% 29.87 in 10.0 mi WNW 5.8 mph - N/A   Scattered Clouds
5:53 PM 79.0 °F 66.9 °F 66% 29.87 in 10.0 mi West 5.8 mph - N/A   Partly Cloudy
6:53 PM 79.0 °F 66.9 °F 66% 29.88 in 10.0 mi WNW 5.8 mph - N/A   Clear
7:53 PM 75.0 °F 66.0 °F 73% 29.89 in 10.0 mi West 5.8 mph - N/A   Clear
8:53 PM 70.0 °F 66.0 °F 87% 29.91 in 10.0 mi Calm Calm - N/A   Clear
9:53 PM 66.9 °F 64.9 °F 93% 29.94 in 10.0 mi West 3.5 mph - N/A   Partly Cloudy
10:53 PM 68.0 °F 64.0 °F 87% 29.96 in 10.0 mi West 3.5 mph - N/A   Partly Cloudy
11:53 PM 68.0 °F 64.0 °F 87% 29.96 in 10.0 mi WNW 3.5 mph - N/A   Clear